Retour au catalogue

TITAN 4 CENTAUR R/B

ActifGEO
NORAD 27169·ROCKET BODY·🇺🇸 United States

Lancé Jan 14, 2002 depuis Cape Canaveral Space Force Station

Loading…

TLE

FraisSource: Space-Track

Époque: Sep 14, 2026, 15:11 UTC

1 27169U 02001B   26257.63272780 -.00000066  00000-0  00000-0 0  9998
2 27169  10.3063  29.3271 0051219 139.5148 220.9108  1.00229827 27274

Suivez TITAN 4 CENTAUR R/B en temps réel avec AllMySat

Download on the App Store